User: anonymous   Login
Location: Unspecified
(0.0000°N, 0.0000°E)
Time: 14:00:09
(UTC+00:00)
Language:

PCSat - Orbit

View from above orbital plane
View from above orbital plane
View from above satellite
View from above satellite

Ground track
Ground track

The orbit data is extracted from the following two-line orbital elements,

1 26931U 01043C   18050.68557979 -.00000009 +00000-0 +28503-4 0  9991
2 26931 067.0514 172.5986 0005868 281.9339 078.1104 14.30494329855677
Epoch (UTC): 19 February 2018 16:27:14
Eccentricity: 0.0005868
inclination: 67.0514°
perigee height: 786 km
apogee height: 794 km
right ascension of ascending node: 172.5986°
argument of perigee: 281.9339°
revolutions per day: 14.30494329
mean anomaly at epoch: 78.1104°
orbit number at epoch: 85567

The dashed part of the orbit path shows where the satellite is in the earth's shadow,  

DLR